COSMOS 886 DEB *, 9954

Orbit data source: Space-Track

COSMOS 886 DEB *, 9954 is space debris in LEO originally from a launch on Mon, 27 Dec 1976 UTC launched from the Tyuratam Missile And Space Complex (TTMTR). Debris objects in space refer to the collection of defunct objects orbiting the Earth. Examples of debris include non-operational satellites, rocket bodies, and fragments generated from explosions, collisions, or faulty payload assembly.

Loading next visibility...
Identifier
9954, 1976-126AU
Orbit
LEO
Country
Flag of CISCIS
Related business
Manufacturer
Unknown
Mission
Spacecraft
Bus & Motor
Unknown
Mass
Unknown
Launch date (UTC)
1976-12-27 (49 years ago)
Launch vehicle
Unknown
Launch site
Tyuratam Missile And Space Complex (TTMTR)
Object type
Payload
Rocket body
Debris
Shape & HBR
Unknown shape, 0.1 m
Radar Cross Section
Medium (>0.1 m² and <1 m²)

Expand to show TLE details & history
Last TLE update: 1 day ago

TLE from 1 day ago
0 COSMOS 886 DEB *
1 09954U 76126AU  26174.82201055  .00000666  00000-0  31958-3 0  9999
2 09954  65.6999 116.7625 0891173  38.0886 327.9828 13.04162989627954
Epoch: 2026-06-23T19:43Z
TLE epoch observation values (Epoch: 2026-06-23T19:43:41.711Z)
Latitude
0.00003°
Longitude
-91.14935°
Altitude
690.711 km
Speed
7.781 km/s
True Right ascension
07h 47m 03s
True Declination
0° 00' 00"
Sunlit
Object was in daylight at epoch
Visualization orbit readout
Latitude
Unknown
Longitude
Unknown
Altitude
Unknown
Speed
Unknown
Apparent Right ascension
Unknown
Apparent Declination
Unknown
Sunlit
N/A
Visualization observer readout
Local Sidereal Time
14:46:07
Azimuth
Unknown
Elevation
Unknown
Doppler factor
Unknown
Orbital elements
Apogee altitude
1,923.689 km
Perigee altitude
565.091 km
Semi-major axis
7,622.527 km
Eccentricity
0.08912
Inclination
65.6999°
RAAN
116.7625°
Arg. of periapsis
38.0886°
True anomaly
322.01747°
Mean anomaly
327.9828°
Eccentric anomaly
325.05835°
Mean motion
3.26133 °/min
Orbital period
110.38 mins
BSTAR
0.00031958
Loading maneuver chart data...
Computing Atmospheric mass density...

Documentation

Showing up to 5 results
|